EW9965 Weather Reports


time (UTC)temp
F
wind
direction
speed
knots
gust
knots
rain 1hr
in
rain 24hr
in
rain mn
in
humidity
%
barometer
mb
20260510080041 59 159 0.0 0.0 0.00 0.00 0.00 85 1012.8
20260510074540 59 95 0.0 0.0 0.00 0.00 0.00 85 1012.9
20260510073051 59 95 0.0 0.0 0.00 0.00 0.00 85 1013.0
20260510071536 59 116 0.0 0.0 0.00 0.00 0.00 84 1013.1
20260510070036 59 155 0.0 0.0 0.00 0.00 0.00 83 1013.1
20260510064545 59 155 0.0 0.0 0.00 0.00 0.00 83 1013.2
20260510063039 59 154 0.0 0.0 0.00 0.00 0.00 82 1013.3
20260510061534 59 154 0.0 0.0 0.00 0.00 0.00 82 1013.3
20260510060040 60 154 0.0 0.0 0.00 0.00 0.00 82 1013.4
20260510054529 60 203 0.0 0.0 0.00 0.00 0.00 82 1013.4
20260510053039 60 225 0.0 0.0 0.00 0.00 0.00 81 1013.4
20260510051528 61 190 0.0 4.3 0.00 0.00 0.00 80 1013.3
20260510050028 62 180 0.0 4.3 0.00 0.00 0.00 79 1013.2
20260510044543 62 153 0.9 4.3 0.00 0.00 0.00 78 1013.3
20260510043031 63 182 0.9 4.3 0.00 0.00 0.00 77 1013.2
20260510041525 63 188 0.9 4.3 0.00 0.00 0.00 76 1013.1
20260510040038 64 223 0.9 3.5 0.00 0.00 0.00 75 1013.0
20260510034525 65 186 0.0 3.5 0.00 0.00 0.00 73 1012.7
20260510033034 65 158 0.9 4.3 0.00 0.00 0.00 72 1012.5
20260510031523 66 198 0.9 4.3 0.00 0.00 0.00 70 1012.2
20260510030022 67 180 2.6 5.2 0.00 0.00 0.00 69 1012.0
20260510024522 68 211 0.9 4.3 0.00 0.00 0.00 67 1012.0
20260510023021 69 228 2.6 6.1 0.00 0.00 0.00 65 1011.8
20260510021520 70 173 1.7 7.8 0.00 0.00 0.00 63 1011.8
20260510020022 72 204 0.9 7.0 0.00 0.00 0.00 60 1011.8
20260510014518 73 161 2.6 7.8 0.00 0.00 0.00 57 1011.6
20260510013016 75 149 2.6 7.0 0.00 0.00 0.00 55 1011.7
20260510011519 76 177 3.5 7.8 0.00 0.00 0.00 52 1011.4
20260510010022 77 226 1.7 7.0 0.00 0.00 0.00 49 1011.5
20260510004515 78 174 2.6 6.1 0.00 0.00 0.00 48 1011.4
20260510003014 79 218 1.7 7.0 0.00 0.00 0.00 47 1011.4
20260510001512 79 171 3.5 7.8 0.00 0.00 0.00 47 1011.3
20260510000017 80 190 2.6 7.8 0.00 0.00 0.00 47 1011.2
20260509234517 80 204 1.7 7.8 0.00 0.00 0.00 47 1011.4
20260509233011 80 241 2.6 9.6 0.00 0.00 0.00 47 1011.3
20260509231513 80 199 3.5 8.7 0.00 0.00 0.00 47 1011.4
20260509230016 80 149 3.5 8.7 0.00 0.00 0.00 47 1011.5
20260509224505 79 205 3.5 10.4 0.00 0.00 0.00 49 1011.7
20260509223007 81 240 2.6 9.6 0.00 0.00 0.00 47 1011.7
20260509221602 80 183 4.3 8.7 0.00 0.00 0.00 47 1011.8
20260509220002 81 178 3.5 8.7 0.00 0.00 0.00 45 1011.8
20260509214501 81 201 4.3 10.4 0.00 0.00 0.00 47 1011.8
20260509213102 82 250 4.3 10.4 0.00 0.00 0.00 46 1011.9
20260509211605 82 176 4.3 9.6 0.00 0.00 0.00 47 1012.0
20260509210059 82 240 4.3 12.2 0.00 0.00 0.00 46 1012.0
20260509204557 83 176 5.2 12.2 0.00 0.00 0.00 45 1012.0
20260509203106 84 153 4.3 10.4 0.00 0.00 0.00 44 1012.1
20260509201603 84 149 4.3 9.6 0.00 0.00 0.00 43 1012.0
20260509200108 85 187 3.5 10.4 0.00 0.00 0.00 43 1012.0
20260509194554 85 219 5.2 11.3 0.00 0.00 0.00 41 1012.0
20260509193111 85 212 3.5 9.6 0.00 0.00 0.00 42 1012.1
20260509191549 83 149 5.2 8.7 0.00 0.00 0.00 42 1012.2
20260509190047 82 155 4.3 7.8 0.00 0.00 0.00 45 1012.4
20260509184548 80 203 2.6 7.8 0.00 0.00 0.00 49 1012.5
20260509183038 80 134 3.5 7.8 0.00 0.00 0.00 51 1012.6
20260509181540 78 105 0.9 5.2 0.00 0.00 0.00 52 1012.8
20260509180032 77 119 3.5 6.1 0.00 0.00 0.00 53 1012.8
20260509174529 76 245 0.0 4.3 0.00 0.00 0.00 56 1013.0
20260509173023 74 171 1.7 5.2 0.00 0.00 0.00 61 1013.2
20260509171527 72 318 0.0 5.2 0.00 0.00 0.00 65 1013.2
20260509170015 71 166 1.7 5.2 0.00 0.00 0.00 66 1013.2
20260509164511 70 116 0.9 3.5 0.00 0.00 0.00 67 1013.2
20260509161505 67 219 0.9 4.3 0.00 0.00 0.00 73 1013.4
20260509160100 66 224 0.0 4.3 0.00 0.00 0.00 75 1013.3
20260509154555 64 120 0.0 3.5 0.00 0.00 0.00 78 1013.4
20260509153051 63 259 0.0 4.3 0.00 0.00 0.00 80 1013.5
20260509151547 62 149 0.9 2.6 0.00 0.00 0.00 83 1013.5
20260509150100 60 41 0.9 4.3 0.00 0.00 0.00 87 1013.3
20260509144627 59 340 2.6 5.2 0.00 0.00 0.00 88 1013.4
20260509143046 59 39 1.7 4.3 0.00 0.00 0.00 89 1013.5
20260509141541 59 22 0.9 3.5 0.00 0.00 0.00 89 1013.5
20260509140031 59 336 0.9 3.5 0.00 0.00 0.00 89 1013.3
20260509134527 59 43 1.7 2.6 0.00 0.00 0.00 90 1013.4
20260509133023 59 22 0.9 4.3 0.00 0.00 0.00 90 1013.1
20260509131523 59 29 1.7 4.3 0.00 0.00 0.00 90 1013.0
20260509130019 59 315 0.0 0.0 0.00 0.00 0.00 90 1013.1
20260509124518 59 336 0.0 0.0 0.00 0.00 0.00 90 1013.2
20260509123017 59 30 0.0 3.5 0.00 0.00 0.00 90 1013.0
20260509121524 59 13 0.0 3.5 0.00 0.00 0.00 90 1012.9
20260509120016 59 36 0.9 3.5 0.00 0.00 0.00 90 1012.9
20260509114514 59 359 0.0 1.7 0.00 0.00 0.00 90 1012.9
20260509113013 59 40 0.0 3.5 0.00 0.00 0.00 90 1013.0
20260509111512 59 39 0.0 3.5 0.00 0.00 0.00 90 1013.0
20260509110012 59 25 0.9 5.2 0.00 0.00 0.00 90 1013.0
20260509104527 59 19 0.0 2.6 0.00 0.00 0.00 90 1013.1
20260509103007 60 357 1.7 3.5 0.00 0.00 0.00 90 1013.1
20260509101505 60 47 1.7 4.3 0.00 0.00 0.00 89 1013.2
20260509100005 60 41 0.9 4.3 0.00 0.00 0.00 89 1013.1
20260509094513 60 302 0.0 3.5 0.00 0.00 0.00 89 1013.3
20260509093001 60 71 0.0 1.7 0.00 0.00 0.00 88 1013.4
20260509091600 60 71 0.0 0.9 0.00 0.00 0.00 88 1013.6
20260509090107 60 51 0.0 4.3 0.00 0.00 0.00 88 1013.6
20260509084601 60 99 0.9 5.2 0.00 0.00 0.00 88 1013.8
20260509083055 60 103 0.9 3.5 0.00 0.00 0.00 88 1013.8
20260509081552 60 139 1.7 4.3 0.00 0.00 0.00 87 1013.8